Torna al catalogo

COSMOS 842

AttivoMilitarePO
NORAD 9025·PAYLOAD·🇷🇺 Russia

Lanciato Jul 21, 1976 da Plesetsk Cosmodrome

Loading…

Prossimi Passaggi (prossime 24 ore)

TLE

AggiornatoSource: Space-Track

Epoca: Sep 14, 2026, 05:45 UTC

1 09025U 76070A   26257.23966833  .00000046  00000-0  32079-4 0  9993
2 09025  82.9922 350.7914 0028006  19.1819   9.7678 13.74251753514324

Traccia COSMOS 842 in tempo reale con AllMySat

Download on the App Store